Wind_Speed
26 26 26 26 27 27 27 27 27 27 28 29 30 30 30 31 31 32 32 33 33 34 34 34 35 35 35 36 36 36 37 37 38 38 39 39 40 40 41 42 42 43 43
27 27 27 27 28 28 28 28 28 29 29 30 30 30 31 31 32 32 32 33 34 34 35 35 35 36 36 37 37 37 38 38 39 39 40 41 41 42 43 44 44 45 45
28 28 28 29 29 28 29 29 29 30 30 30 31 31 32 32 33 33 33 34 35 35 35 36 36 37 37 38 38 39 39 40 41 41 42 43 43 43 43 44 45 46 47
29 29 29 30 30 29 30 30 30 30 30 31 31 32 32 32 33 34 34 35 35 35 36 37 38 38 39 39 40 40 41 42 42 43 44 44 45 45 44 44 46 47 47
30 30 30 30 30 30 30 30 30 31 31 31 31 32 32 33 34 34 35 36 36 37 38 39 39 40 40 41 41 42 42 43 44 45 45 46 46 47 47 46 46 48 49
30 30 30 30 30 30 30 30 30 31 31 31 32 32 33 34 35 36 36 37 37 38 39 39 40 41 41 42 42 43 43 44 45 46 47 47 48 48 49 49 49 49 50
30 30 29 29 29 29 30 30 31 31 32 32 33 33 34 35 36 37 37 37 38 39 39 40 41 42 42 43 43 44 44 45 46 47 48 49 50 50 51 51 51 51 51
30 29 29 30 30 30 30 31 32 32 33 33 33 34 35 36 36 37 38 38 39 40 41 41 42 42 43 44 44 45 46 47 48 48 49 50 51 52 53 53 54 53 52
30 30 30 31 31 31 31 31 32 32 33 33 34 35 36 36 37 37 38 38 39 40 41 42 42 42 44 45 46 46 47 48 49 49 50 50 52 53 54 54 55 55 55
30 30 30 30 31 31 31 32 32 33 33 34 35 35 36 36 37 38 38 39 40 41 42 42 42 43 44 45 46 47 48 49 50 50 51 52 53 54 55 55 56 57 58
30 30 30 31 31 31 32 32 33 33 34 35 35 36 36 37 38 38 39 40 41 41 42 43 43 44 44 45 47 47 49 50 51 51 52 53 54 55 55 56 57 58 59
30 30 31 31 31 31 32 33 34 34 35 35 36 36 37 38 38 39 40 41 41 42 43 43 44 44 45 46 47 48 50 51 51 52 52 53 54 55 56 58 59 60 61
30 30 31 31 31 32 33 33 34 34 35 35 36 37 38 38 39 40 40 41 42 43 43 43 44 45 46 47 48 49 50 51 51 52 53 54 55 57 58 59 60 62 63
31 31 31 31 32 33 33 34 34 34 35 35 36 37 38 38 39 40 41 42 42 43 43 44 45 46 47 48 49 50 51 51 52 53 54 56 57 58 60 61 62 63 64
32 32 32 33 33 33 33 34 34 34 35 36 37 38 38 39 39 40 41 42 43 43 44 45 46 47 48 48 49 50 51 52 53 54 56 57 58 59 61 62 63 64 65
33 33 33 33 33 33 34 34 35 36 36 37 38 39 39 40 40 41 42 42 43 43 44 45 46 47 48 49 50 51 52 53 54 55 56 57 59 60 61 62 64 65 66
34 34 35 35 34 34 34 35 36 37 38 38 39 40 40 40 41 41 42 43 43 44 45 46 47 48 49 50 51 52 53 54 55 56 57 58 59 61 62 64 65 66 66
35 35 35 36 35 35 35 36 37 38 39 39 40 40 40 41 42 42 43 44 44 45 46 47 48 49 50 51 52 53 54 55 56 57 58 59 61 62 64 65 65 65 65
35 36 36 36 36 36 37 38 38 39 39 40 40 41 41 42 43 43 44 45 46 47 48 48 49 50 51 52 54 55 56 56 57 58 59 61 62 64 65 66 65 65 65
36 36 36 36 36 37 37 38 39 39 40 40 41 42 42 43 44 45 45 46 47 48 48 49 50 51 52 54 55 56 57 58 58 60 61 62 64 65 65 66 65 65 65
37 37 37 36 36 37 38 39 39 40 40 41 42 42 43 45 45 46 47 47 48 49 49 50 51 53 54 55 57 58 59 59 60 61 62 63 65 65 65 65 65 65 66
37 37 37 37 37 38 38 39 40 41 41 42 43 44 45 46 46 47 48 49 49 50 51 52 53 54 55 57 58 59 60 60 61 62 63 65 65 65 65 65 66 66 66
37 37 37 38 38 38 39 40 41 41 42 43 44 45 46 47 47 48 49 49 50 51 52 53 54 55 56 58 59 59 60 61 62 63 65 65 65 64 64 65 65 65 65
38 38 38 38 38 39 40 41 42 43 44 44 45 46 47 47 48 49 50 50 51 52 53 54 55 56 58 58 59 59 60 61 62 64 64 64 64 64 64 64 64 63 63
39 39 39 39 39 40 41 42 43 44 44 45 46 47 48 48 49 50 51 52 53 54 55 56 57 58 58 58 59 60 61 62 63 64 63 63 63 62 63 62 62 61 59
39 39 40 40 40 41 42 43 44 45 45 46 47 48 48 49 50 51 52 53 54 55 56 58 59 59 59 60 60 61 62 63 64 63 63 62 62 62 61 60 59 58 56
Wind_Direction
276 277 279 280 281 283 284 285 286 287 288 290 291 292 292 292 292 292 293 294 295 295 295 294 294 295 295 296 296 296 296 295 295 295 295 295 295 295 295 295 295 295 295
275 277 278 280 281 282 284 285 285 287 289 290 291 291 291 292 292 293 293 294 294 294 295 295 295 295 295 296 296 296 296 296 296 295 295 295 295 295 296 296 296 296 295
275 277 278 280 281 281 282 284 285 287 288 290 291 291 291 292 292 292 293 293 294 294 295 295 295 295 295 296 296 296 296 296 296 296 296 296 296 295 295 295 295 296 296
274 277 278 280 280 281 282 283 285 286 288 289 291 291 291 291 292 292 293 294 294 295 295 295 295 295 295 296 296 296 296 296 296 296 296 296 296 296 295 295 295 295 295
275 277 278 279 279 280 282 283 284 286 288 289 290 291 291 291 292 293 294 294 294 294 294 294 295 295 296 296 297 297 296 296 297 296 296 296 297 296 296 296 295 296 296
274 276 277 278 279 280 281 282 284 285 287 289 290 291 291 292 292 293 293 294 295 295 295 295 295 296 296 297 297 297 297 297 297 297 297 297 297 297 297 296 297 296 296
273 275 275 277 278 279 281 282 284 286 288 289 290 291 292 293 293 293 294 294 295 295 294 295 295 296 296 297 297 297 297 297 297 297 297 297 298 298 298 298 298 297 297
271 272 274 276 278 279 281 283 285 286 288 289 290 291 292 293 294 294 295 295 295 295 295 296 296 296 296 297 297 297 297 297 297 298 297 298 298 298 298 298 298 298 298
270 271 273 276 277 279 281 283 285 287 288 289 290 291 293 294 294 295 295 295 295 295 296 296 297 297 297 297 297 297 297 297 297 298 298 298 298 298 298 299 299 299 298
269 271 274 276 277 279 281 283 285 287 288 289 290 292 293 294 294 295 295 295 295 295 295 296 296 296 296 297 297 297 297 297 297 298 298 297 298 298 299 299 299 299 299
268 270 273 275 278 280 282 283 285 286 288 289 290 291 292 293 294 295 295 295 295 295 296 296 297 297 297 297 297 297 297 298 298 298 298 298 298 299 299 299 299 300 300
267 269 272 275 278 281 282 283 285 286 287 288 290 291 292 293 294 295 295 295 295 295 296 296 297 297 298 298 298 298 299 299 298 298 298 298 299 299 299 299 300 300 300
267 269 272 275 278 280 282 283 285 286 287 288 290 291 292 293 294 295 296 295 295 295 296 296 297 298 298 299 299 299 300 299 299 299 299 299 299 300 300 300 300 300 300
268 270 272 275 277 280 282 283 285 286 287 289 290 292 293 294 295 295 295 296 296 296 296 296 297 298 299 299 299 300 300 300 299 299 300 300 300 300 300 300 300 300 301
269 271 272 273 276 279 281 283 285 286 288 289 291 293 293 294 295 296 297 297 297 296 297 297 298 298 299 300 300 301 301 300 300 300 300 300 300 300 300 300 300 301 301
268 269 270 272 275 278 280 283 285 287 288 290 292 293 293 294 296 297 298 298 298 298 298 299 299 300 300 300 301 302 302 301 301 301 301 301 301 301 301 301 302 302 302
266 267 270 272 274 277 280 283 285 287 289 290 292 293 293 294 296 297 298 299 299 299 299 300 300 300 300 300 301 302 302 302 301 302 302 302 302 302 302 302 302 302 302
265 266 268 271 274 277 280 282 285 287 289 290 292 293 294 295 296 297 298 299 299 299 300 300 300 300 301 301 302 303 303 302 302 303 303 302 302 302 303 303 303 302 301
264 266 268 270 274 277 280 282 285 287 288 290 291 293 294 295 296 297 298 299 299 300 300 300 301 301 301 301 302 303 304 304 303 303 303 303 303 303 303 303 302 302 301
263 265 268 271 274 277 280 282 284 286 288 290 292 293 294 295 296 297 298 299 300 300 301 301 301 301 302 302 303 304 304 304 303 303 304 304 304 304 303 303 303 302 302
263 265 268 271 275 277 279 282 284 287 289 290 292 293 294 296 297 298 298 299 300 301 301 302 302 302 303 304 304 305 305 305 304 304 305 305 305 305 304 303 303 303 303
265 267 270 272 275 277 280 282 285 287 289 291 292 293 295 296 297 298 299 300 301 301 302 302 303 303 304 305 305 305 305 305 305 305 306 306 305 304 304 304 304 304 304
266 268 271 273 276 278 281 283 286 288 289 291 293 294 295 297 298 299 300 300 301 302 302 303 304 304 305 305 306 306 306 306 306 307 307 306 305 304 304 304 304 304 305
266 269 272 274 277 279 282 284 286 288 290 291 293 295 296 297 298 299 300 301 301 302 303 303 304 305 306 306 306 307 307 307 308 308 307 306 306 306 306 305 305 305 305
269 271 274 276 278 280 282 284 286 288 290 291 293 295 296 297 298 299 301 301 302 303 303 304 305 306 306 307 307 308 308 308 309 309 308 307 307 307 306 306 305 305 305
270 272 274 276 278 281 283 285 287 288 290 291 293 295 296 297 298 300 301 301 302 303 304 305 306 306 307 307 308 308 309 309 309 309 309 309 308 308 307 306 306 305 305
Height
5813 5812 5812 5811 5810 5809 5808 5807 5806 5804 5803 5801 5799 5797 5795 5793 5790 5788 5786 5783 5781 5779 5776 5774 5771 5769 5766 5763 5761 5758 5755 5753 5750 5747 5744 5742 5738 5735 5732 5729 5726 5723 5720
5807 5806 5806 5805 5804 5803 5802 5801 5800 5798 5797 5795 5793 5791 5789 5786 5784 5782 5779 5777 5774 5772 5769 5767 5764 5762 5759 5756 5753 5750 5747 5745 5742 5739 5736 5734 5731 5727 5723 5720 5716 5713 5710
5801 5800 5799 5799 5798 5797 5796 5795 5793 5792 5790 5788 5786 5784 5782 5780 5778 5775 5772 5770 5767 5765 5762 5759 5757 5754 5751 5748 5745 5742 5739 5736 5733 5730 5727 5724 5722 5719 5716 5711 5707 5703 5700
5793 5793 5793 5792 5791 5790 5789 5788 5787 5785 5783 5782 5780 5778 5776 5773 5771 5768 5765 5763 5760 5757 5755 5752 5749 5746 5743 5740 5737 5734 5730 5727 5724 5721 5717 5714 5711 5708 5706 5702 5698 5693 5689
5786 5786 5786 5785 5784 5783 5782 5781 5780 5778 5777 5775 5773 5771 5769 5767 5764 5761 5758 5755 5753 5750 5747 5744 5741 5738 5735 5732 5728 5725 5722 5718 5715 5711 5708 5704 5700 5697 5693 5691 5688 5683 5678
5779 5779 5779 5778 5778 5777 5776 5774 5773 5771 5770 5768 5766 5764 5762 5759 5756 5753 5751 5748 5745 5742 5738 5735 5732 5729 5726 5723 5719 5716 5712 5709 5705 5701 5697 5693 5690 5686 5682 5679 5676 5672 5668
5772 5772 5772 5771 5770 5770 5769 5767 5766 5764 5762 5761 5759 5756 5754 5751 5749 5746 5743 5740 5737 5734 5730 5727 5724 5721 5717 5714 5710 5707 5703 5699 5695 5691 5687 5683 5679 5674 5670 5666 5663 5660 5656
5765 5765 5764 5764 5763 5762 5761 5760 5758 5757 5755 5753 5751 5749 5746 5744 5741 5738 5735 5732 5729 5725 5721 5718 5715 5711 5708 5704 5701 5697 5693 5689 5685 5681 5676 5672 5667 5663 5658 5654 5649 5646 5643
5758 5757 5757 5756 5755 5755 5754 5752 5751 5749 5747 5745 5743 5741 5738 5735 5733 5729 5726 5723 5720 5716 5713 5709 5706 5702 5698 5695 5691 5687 5683 5678 5674 5670 5665 5660 5656 5651 5646 5641 5636 5632 5628
5750 5749 5749 5748 5748 5747 5746 5744 5743 5741 5739 5737 5735 5733 5730 5727 5724 5721 5718 5714 5711 5707 5704 5700 5696 5693 5689 5685 5681 5677 5672 5668 5663 5658 5653 5649 5643 5638 5633 5628 5623 5618 5613
5742 5742 5741 5740 5740 5739 5738 5736 5735 5733 5731 5729 5727 5724 5721 5718 5715 5712 5709 5705 5702 5698 5694 5691 5687 5683 5679 5675 5670 5666 5661 5657 5652 5647 5642 5637 5631 5626 5621 5615 5610 5604 5598
5734 5734 5733 5733 5732 5731 5730 5728 5727 5725 5723 5721 5718 5716 5713 5710 5707 5703 5700 5696 5692 5689 5685 5681 5677 5673 5669 5664 5660 5655 5650 5645 5640 5635 5630 5624 5619 5614 5608 5602 5596 5590 5583
5726 5726 5725 5724 5723 5722 5721 5720 5718 5716 5714 5712 5709 5707 5704 5701 5698 5694 5690 5687 5683 5679 5675 5671 5667 5663 5658 5653 5649 5644 5639 5633 5628 5623 5617 5612 5606 5601 5594 5588 5582 5575 5569
5717 5717 5716 5716 5715 5714 5712 5711 5709 5707 5705 5703 5700 5698 5695 5691 5688 5684 5681 5677 5673 5669 5665 5661 5656 5652 5647 5642 5637 5632 5627 5622 5616 5611 5605 5599 5593 5587 5580 5574 5567 5560 5553
5708 5708 5708 5707 5706 5705 5703 5702 5700 5698 5696 5694 5691 5688 5685 5682 5678 5675 5671 5667 5663 5659 5654 5650 5646 5641 5636 5631 5626 5621 5615 5610 5604 5598 5592 5585 5579 5572 5565 5559 5552 5545 5537
5699 5699 5698 5698 5697 5696 5694 5693 5691 5689 5687 5684 5681 5678 5675 5672 5668 5665 5661 5657 5652 5648 5644 5639 5634 5630 5624 5619 5614 5608 5603 5597 5591 5585 5579 5572 5565 5558 5551 5543 5536 5528 5520
5689 5689 5689 5688 5687 5686 5685 5684 5682 5680 5677 5675 5671 5668 5665 5662 5658 5655 5650 5646 5642 5637 5633 5628 5623 5618 5612 5607 5602 5596 5590 5584 5578 5572 5565 5558 5551 5543 5536 5528 5521 5512 5503
5679 5679 5679 5678 5678 5677 5675 5674 5672 5670 5667 5664 5661 5658 5655 5652 5648 5644 5640 5636 5631 5626 5622 5616 5611 5606 5600 5595 5589 5583 5577 5571 5564 5558 5551 5544 5536 5528 5520 5513 5505 5497 5488
5669 5669 5669 5668 5668 5667 5665 5664 5662 5660 5657 5654 5651 5648 5645 5641 5637 5633 5629 5625 5620 5615 5610 5605 5599 5594 5588 5582 5576 5570 5564 5557 5550 5543 5536 5528 5521 5513 5504 5496 5489 5481 5473
5659 5659 5659 5658 5658 5657 5655 5653 5652 5649 5647 5644 5641 5637 5634 5630 5626 5622 5618 5613 5608 5603 5598 5592 5587 5581 5575 5569 5563 5556 5550 5543 5536 5529 5521 5512 5504 5496 5487 5479 5471 5464 5456
5649 5649 5649 5648 5648 5646 5645 5643 5641 5639 5636 5633 5630 5626 5623 5619 5615 5610 5606 5601 5596 5591 5586 5580 5575 5568 5562 5556 5549 5541 5534 5527 5520 5513 5505 5497 5488 5479 5470 5462 5454 5446 5438
5639 5639 5639 5638 5637 5636 5634 5632 5631 5628 5625 5622 5619 5615 5611 5607 5603 5598 5594 5589 5583 5578 5573 5567 5561 5555 5548 5541 5534 5526 5519 5511 5504 5497 5489 5480 5471 5462 5454 5445 5437 5429 5421
5628 5628 5628 5628 5627 5625 5623 5622 5620 5617 5614 5611 5607 5603 5600 5595 5591 5586 5581 5576 5571 5565 5560 5554 5548 5541 5534 5527 5519 5511 5503 5495 5487 5479 5471 5463 5454 5445 5437 5429 5420 5412 5403
5618 5618 5618 5617 5616 5614 5612 5610 5608 5605 5602 5599 5595 5592 5588 5583 5578 5573 5568 5563 5557 5552 5546 5540 5534 5527 5520 5512 5504 5496 5488 5480 5471 5463 5454 5445 5436 5428 5420 5412 5403 5395 5387
5607 5607 5607 5606 5605 5603 5601 5599 5596 5593 5590 5587 5583 5579 5575 5570 5566 5561 5555 5549 5544 5538 5532 5526 5519 5512 5505 5497 5489 5481 5473 5464 5456 5446 5438 5429 5421 5412 5404 5395 5387 5379 5371
5597 5596 5596 5595 5594 5592 5590 5587 5584 5581 5578 5575 5571 5567 5562 5558 5553 5548 5542 5536 5530 5524 5517 5510 5503 5496 5489 5481 5474 5466 5457 5448 5439 5430 5422 5413 5404 5396 5388 5380 5372 5364 5356